User: anonymous   Login
Location: Poughquag
(41.6090°N, 73.6820°W)
Time: 12:27:21
(UTC-05:00)
Language:

CAS-4A - Orbit

View from above orbital plane
View from above orbital plane
View from above satellite
View from above satellite

Ground track
Ground track

The orbit data is extracted from the following two-line orbital elements,

1 42761U 17034D   23334.15839399  .00018880  00000-0  83328-3 0  9999
2 42761  43.0137 269.1196 0010547 108.0331 252.1669 15.21394658356882
Epoch (UTC): 30 November 2023 03:48:05
Eccentricity: 0.0010547
inclination: 43.0137°
perigee height: 494 km
apogee height: 509 km
right ascension of ascending node: 269.1196°
argument of perigee: 108.0331°
revolutions per day: 15.21394658
mean anomaly at epoch: 252.1669°
orbit number at epoch: 35688

The dashed part of the orbit path shows where the satellite is in the earth's shadow,  

DLR